TimeEET,TemperatureF,Dew PointF,Humidity,Sea Level PressureIn,VisibilityMPH,Wind Direction,Wind SpeedMPH,Gust SpeedMPH,PrecipitationIn,Events,Conditions,WindDirDegrees,DateUTC
12:20 AM,50.0,26.6,40,30.18,-9999.0,NW,21.9,-,N/A,,Clear,320,2012-12-13 22:20:00
12:50 AM,50.0,28.4,43,30.18,-9999.0,NNW,15.0,-,N/A,,Clear,330,2012-12-13 22:50:00
1:20 AM,50.0,26.6,40,30.18,-9999.0,NNW,17.3,-,N/A,,Clear,330,2012-12-13 23:20:00
1:50 AM,50.0,26.6,40,30.18,-9999.0,NW,16.1,-,N/A,,Clear,320,2012-12-13 23:50:00
2:50 AM,48.2,24.8,40,30.18,-9999.0,NW,15.0,-,N/A,,Clear,310,2012-12-14 00:50:00
3:20 AM,48.2,21.2,34,30.18,-9999.0,NW,13.8,-,N/A,,Clear,310,2012-12-14 01:20:00
3:50 AM,46.4,24.8,43,30.15,-9999.0,WNW,13.8,-,N/A,,Clear,290,2012-12-14 01:50:00
4:20 AM,46.4,23.0,40,30.18,-9999.0,WNW,11.5,-,N/A,,Clear,300,2012-12-14 02:20:00
4:50 AM,46.4,23.0,40,30.18,-9999.0,NW,9.2,-,N/A,,Clear,310,2012-12-14 02:50:00
5:20 AM,48.2,19.4,32,30.18,-9999.0,NNW,12.7,-,N/A,,Clear,330,2012-12-14 03:20:00
5:50 AM,48.2,19.4,32,30.18,-9999.0,North,15.0,-,N/A,,Clear,350,2012-12-14 03:50:00
6:20 AM,46.4,19.4,34,30.18,-9999.0,NNW,16.1,-,N/A,,Clear,340,2012-12-14 04:20:00
6:50 AM,44.6,21.2,39,30.18,-9999.0,NNW,11.5,-,N/A,,Clear,340,2012-12-14 04:50:00
7:20 AM,46.4,19.4,34,30.18,-9999.0,NW,11.5,-,N/A,,Clear,320,2012-12-14 05:20:00
7:50 AM,46.4,21.2,37,30.18,-9999.0,WNW,8.1,-,N/A,,Clear,300,2012-12-14 05:50:00
8:00 AM,46,21,25,30.19,6,WNW,8.1,,,,,300,2012-12-14 06:00:00
8:20 AM,46.4,24.8,43,30.21,-9999.0,North,5.8,-,N/A,,Clear,350,2012-12-14 06:20:00
8:50 AM,51.8,24.8,35,30.21,-9999.0,NNW,10.4,-,N/A,,Clear,340,2012-12-14 06:50:00
9:20 AM,51.8,24.8,35,30.21,-9999.0,North,13.8,-,N/A,,Clear,350,2012-12-14 07:20:00
9:50 AM,53.6,24.8,33,30.21,-9999.0,NNW,12.7,-,N/A,,Clear,340,2012-12-14 07:50:00
10:20 AM,53.6,24.8,33,30.21,-9999.0,North,11.5,-,N/A,,Clear,360,2012-12-14 08:20:00
10:50 AM,55.4,23.0,29,30.21,-9999.0,North,12.7,-,N/A,,Clear,360,2012-12-14 08:50:00
11:20 AM,57.2,28.4,33,30.18,-9999.0,North,10.4,-,N/A,,Clear,360,2012-12-14 09:20:00
11:50 AM,57.2,23.0,27,30.18,-9999.0,North,11.5,-,N/A,,Clear,10,2012-12-14 09:50:00
12:20 PM,59.0,19.4,22,30.18,-9999.0,North,12.7,-,N/A,,Clear,360,2012-12-14 10:20:00
12:50 PM,59.0,19.4,22,30.18,-9999.0,North,12.7,-,N/A,,Clear,360,2012-12-14 10:50:00
1:20 PM,59.0,24.8,27,30.18,-9999.0,NNE,8.1,-,N/A,,Clear,30,2012-12-14 11:20:00
1:50 PM,60.8,26.6,27,30.15,-9999.0,NNE,6.9,-,N/A,,Clear,30,2012-12-14 11:50:00
2:00 PM,60,28,18,30.17,6,NNE,6.9,,,,Clear,30,2012-12-14 12:00:00
2:20 PM,60.8,23.0,23,30.15,-9999.0,NE,4.6,-,N/A,,Clear,50,2012-12-14 12:20:00
2:50 PM,60.8,24.8,25,30.15,-9999.0,Variable,2.3,-,N/A,,Clear,0,2012-12-14 12:50:00
3:20 PM,60.8,26.6,27,30.15,-9999.0,ENE,3.5,-,N/A,,Clear,70,2012-12-14 13:20:00
3:50 PM,59.0,26.6,29,30.15,-9999.0,Variable,1.2,-,N/A,,Clear,0,2012-12-14 13:50:00
4:20 PM,53.6,33.8,47,30.18,-9999.0,Variable,2.3,-,N/A,,Clear,0,2012-12-14 14:20:00
4:50 PM,51.8,32.0,47,30.18,-9999.0,Variable,2.3,-,N/A,,Clear,0,2012-12-14 14:50:00
5:20 PM,48.2,32.0,54,30.18,-9999.0,Variable,2.3,-,N/A,,Clear,0,2012-12-14 15:20:00
5:50 PM,48.2,32.0,54,30.18,-9999.0,North,6.9,-,N/A,,Clear,350,2012-12-14 15:50:00
6:20 PM,48.2,32.0,54,30.18,-9999.0,NNW,6.9,-,N/A,,Clear,330,2012-12-14 16:20:00
6:50 PM,48.2,32.0,54,30.21,-9999.0,NW,6.9,-,N/A,,Clear,320,2012-12-14 16:50:00
7:20 PM,48.2,32.0,54,30.21,-9999.0,NNW,6.9,-,N/A,,Clear,330,2012-12-14 17:20:00
7:50 PM,46.4,32.0,57,30.21,-9999.0,North,5.8,-,N/A,,Clear,360,2012-12-14 17:50:00
8:00 PM,47,32,43,30.20,6,North,5.8,,,,,0,2012-12-14 18:00:00
8:20 PM,46.4,32.0,57,30.21,-9999.0,NNW,6.9,-,N/A,,Clear,340,2012-12-14 18:20:00
8:50 PM,44.6,32.0,61,30.21,-9999.0,North,3.5,-,N/A,,Clear,360,2012-12-14 18:50:00
9:20 PM,46.4,32.0,57,30.21,-9999.0,North,9.2,-,N/A,,Clear,360,2012-12-14 19:20:00
9:50 PM,46.4,30.2,53,30.21,-9999.0,NNW,11.5,-,N/A,,Clear,340,2012-12-14 19:50:00
10:20 PM,46.4,28.4,50,30.21,-9999.0,NNW,8.1,-,N/A,,Clear,330,2012-12-14 20:20:00
10:50 PM,44.6,28.4,53,30.21,-9999.0,WNW,6.9,-,N/A,,Clear,300,2012-12-14 20:50:00
11:20 PM,44.6,26.6,49,30.21,-9999.0,NW,8.1,-,N/A,,Clear,320,2012-12-14 21:20:00
11:50 PM,42.8,28.4,57,30.21,-9999.0,North,4.6,-,N/A,,Clear,350,2012-12-14 21:50:00